Starlink 31873

operational
NORAD ID: 59790 Int'l Des: 2024-093 Owner: SPXS Country: US Constellation: starlink
LEOCIRCULAR

关于 Starlink 31873

正在加载描述...

实时位置

正在加载3D地球...

即将过境

高度历史

Altitude vs Time

uPlot chart will show altitude changes over time

两行轨道根数

1 59790U 24093J 25306.42485090 .00005211 00000-0 19886-3 0 9990
2 59790 42.9986 207.4712 0001108 293.9110 66.1625 15.27562463 83231
Epoch: Nov 2, 2025 • Age: 44 hours

当前状态

高度 494.4 km
速度 7.62 km/s
星下点 -40.13°S, 2.01°E
发射日期 May 18, 2024
运行时间 1.4 years
类型 internet

技术详情

分类 Payload
质量 730.00 kg
干质量 700.00 kg
总质量 730.00 kg
长度 0.30 m
直径 4.10 m
跨度 29.00 m
形状 Box + pan
制造商 SPXS
平台类型 Starlink V2M
阶段状态 In Orbit
所有者/国家 SPXS/US

大型星座

Loading constellations...